Cosmos 1092 Rocket - Orbit

View from above orbital plane
View from above orbital plane
View from above satellite
View from above satellite

Ground track
Ground track

The orbit data is extracted from the following two-line orbital elements,

1 11327U 79030B   13138.14132087  .00000085  00000-0  70472-4 0  5415
2 11327 082.9484 322.9279 0028167 036.5387 101.2537 13.76894144713941
Epoch (UTC): 18 May 2013 03:23:30
Eccentricity: 0.0028167
inclination: 82.9484°
perigee height: 954 km
apogee height: 995 km
right ascension of ascending node: 322.9279°
argument of perigee: 36.5387°
revolutions per day: 13.76894144
mean anomaly at epoch: 101.2537°
orbit number at epoch: 71394

The dashed part of the orbit path shows where the satellite is in the earth's shadow,  

Developed and maintained by Chris Peat, Heavens-Above GmbH. Please read the updated FAQ before sending e-mail. Imprint. DLR